Theta_e
315 315 315 315 315 315 314 315 314 314 315 315 315 315 314 314 315 314 313 314 314 313 312 312 312 312 312 312 312 311 311 312 312 311 311 311 311 311 311 311 311 311 311 311 311 312 312 312 312 312 313 313 313 313 313 313 313 312 312 312 312 311 310 310 310 310 310 309 309 308 307 306 305 305 305 304 302 300 298 297 296 295 294 293 293 292 291
314 314 314 314 314 314 314 314 314 314 314 314 314 314 314 314 314 313 313 314 314 313 312 312 311 311 312 311 311 312 312 312 311 311 311 310 310 310 309 309 310 310 310 310 310 311 311 312 312 313 313 313 313 313 313 313 313 313 313 312 312 311 310 310 311 310 310 309 308 308 306 306 305 304 304 303 301 300 298 297 295 294 294 293 292 292 291
314 314 313 313 313 313 314 314 313 313 313 313 313 313 313 314 313 313 313 313 313 313 312 312 312 312 312 312 312 312 311 311 311 310 308 307 307 307 306 307 307 307 307 308 309 310 311 311 312 313 313 313 313 313 313 313 313 313 312 312 312 311 311 311 311 310 310 309 309 308 307 306 304 303 302 301 300 299 298 296 295 294 293 293 292 291 291
315 314 314 313 312 312 312 313 313 313 313 312 313 313 313 313 313 313 313 314 313 312 312 312 312 312 312 312 312 310 310 309 306 304 303 302 302 303 303 304 304 304 304 305 306 307 308 309 310 311 312 312 312 313 313 313 313 313 312 312 312 311 311 311 310 310 309 309 308 308 307 305 304 302 301 300 299 299 297 296 295 294 293 292 291 291 290
313 314 314 313 313 313 314 313 313 312 312 312 312 312 312 313 313 313 313 313 310 308 307 307 307 308 308 309 308 305 303 301 300 300 300 300 300 300 300 301 302 302 302 302 303 304 305 307 308 310 311 311 311 312 312 313 313 313 312 312 311 311 311 311 310 310 309 308 308 307 307 305 303 301 300 300 299 298 297 296 294 293 293 292 291 290 290
311 312 313 313 314 314 315 316 315 313 313 313 312 312 312 311 310 309 308 307 303 301 300 300 300 301 302 304 302 299 298 299 298 298 298 298 298 298 298 298 298 299 300 300 301 302 303 305 307 309 310 310 310 311 312 312 313 312 312 312 311 311 310 310 309 308 308 307 307 306 306 304 302 301 300 300 299 298 296 295 294 293 292 292 291 290 290
310 310 311 312 313 313 315 315 310 307 309 309 309 312 310 303 299 300 301 300 298 297 298 298 297 297 299 301 300 297 297 297 296 296 297 296 297 297 297 297 297 297 298 299 299 300 300 302 304 307 309 310 309 310 311 311 312 312 312 311 310 310 309 309 308 307 307 307 306 305 304 303 302 301 300 299 298 297 296 295 294 293 292 292 291 290 290
309 309 310 311 311 312 314 309 302 299 301 300 302 307 303 295 293 297 298 297 296 296 297 297 295 295 297 300 299 297 295 296 296 296 296 296 296 296 296 297 297 297 298 299 299 299 299 299 301 304 307 309 309 310 310 310 311 312 312 311 310 310 309 309 308 307 306 305 305 304 304 302 301 300 299 299 298 296 295 294 293 292 292 291 291 290 289
309 309 309 309 310 311 309 303 297 296 297 295 297 302 300 293 293 296 296 295 296 295 295 296 294 294 295 298 298 295 294 296 296 295 295 295 295 295 295 296 297 297 298 298 298 298 298 299 299 301 303 306 308 309 310 309 309 310 310 310 310 309 309 308 307 305 305 304 304 304 303 302 301 300 300 298 297 296 295 293 292 292 291 291 290 290 289
309 309 309 308 310 309 302 296 295 296 295 294 296 301 300 294 293 295 295 295 295 294 294 295 294 294 294 295 295 294 294 295 295 294 294 294 294 294 294 295 295 295 295 296 296 297 298 298 299 299 301 303 305 306 307 307 306 307 308 308 308 307 307 306 304 303 303 303 303 303 303 302 301 300 299 298 297 295 294 293 292 292 291 290 290 289 289
304 305 305 305 308 305 296 293 295 295 294 294 298 303 301 293 292 295 294 293 294 294 294 294 293 294 293 293 293 294 294 295 294 293 293 293 293 294 294 294 294 294 294 294 295 295 296 298 299 299 300 301 302 303 304 304 305 305 306 306 305 305 304 303 302 302 301 301 301 301 301 300 300 299 298 297 296 294 293 292 292 291 291 290 289 289 288
300 301 301 302 304 300 293 293 294 293 293 296 300 305 301 293 292 294 293 292 293 293 293 293 292 293 293 293 293 293 294 294 293 292 293 293 293 293 293 293 294 293 293 293 294 294 295 296 298 299 300 300 300 301 301 302 303 303 304 304 303 303 302 302 301 301 300 300 299 299 299 298 298 297 296 295 295 293 292 292 291 291 290 289 289 288 288
298 299 298 299 301 297 292 292 293 292 294 297 297 298 296 293 293 293 292 292 292 292 292 292 292 292 293 292 292 292 292 292 292 291 292 292 292 292 293 293 293 293 293 293 293 293 294 294 295 298 299 300 300 300 300 301 301 302 302 302 302 302 301 301 300 300 299 299 298 298 298 297 296 296 295 294 294 293 292 291 291 290 290 289 288 288 287
296 296 295 295 297 296 292 291 292 292 294 293 293 294 293 292 292 291 291 291 291 291 291 291 291 292 292 291 291 291 291 291 290 291 291 291 291 292 292 292 292 292 292 292 293 293 293 293 294 295 298 299 299 299 300 300 300 301 301 301 301 301 301 300 299 298 298 297 297 297 296 296 295 294 294 293 292 292 291 291 290 289 289 288 287 287 286
293 293 293 293 295 295 292 290 291 293 293 292 292 293 293 292 291 290 289 290 289 290 290 290 290 290 290 290 290 290 289 289 289 289 290 291 291 291 291 290 290 290 290 291 292 293 293 293 293 294 296 298 299 299 299 299 300 300 300 300 300 300 300 300 299 298 297 296 296 295 295 294 294 293 293 292 291 291 290 290 289 288 288 287 287 286 285
292 292 293 293 293 292 291 290 290 292 292 292 293 292 291 290 290 289 289 289 288 288 289 289 289 289 289 289 289 288 288 288 288 288 289 289 290 290 289 289 289 289 289 289 290 291 292 293 293 293 295 297 298 298 298 298 299 299 299 299 299 299 299 299 299 299 298 297 296 295 294 293 292 292 291 291 290 290 289 289 288 287 287 286 286 285 285
292 291 292 293 292 291 290 289 290 291 291 292 292 291 289 288 288 288 288 288 288 288 288 287 288 288 287 287 287 286 286 286 287 287 288 288 288 288 288 288 288 288 288 288 289 290 291 291 292 292 294 295 296 297 297 297 298 298 298 298 298 298 298 298 298 298 298 298 297 296 295 294 293 292 291 290 290 289 288 288 287 287 286 286 285 285 284
290 290 291 290 289 289 289 289 290 290 291 291 290 289 288 288 288 287 287 287 287 287 286 286 286 286 286 285 285 285 285 285 285 286 286 286 286 286 286 287 287 287 287 288 288 289 289 290 290 291 292 293 294 295 295 296 296 297 297 297 297 297 297 297 297 297 297 296 296 296 295 294 293 292 291 290 289 289 288 287 287 286 286 286 285 284 284
289 290 290 289 288 288 288 289 289 290 290 290 289 288 288 288 288 287 286 286 286 285 285 285 285 285 285 284 284 284 283 283 284 284 284 284 284 284 285 285 285 285 286 286 287 288 289 289 289 289 290 291 292 292 293 293 294 296 296 296 296 296 296 296 296 296 296 295 295 294 294 294 294 293 291 289 288 288 288 287 286 286 285 285 285 284 283
289 289 289 288 288 288 288 289 289 289 289 289 288 288 287 287 287 286 286 285 285 284 285 284 283 283 284 283 282 282 282 283 283 283 282 282 282 283 284 284 284 284 285 285 286 287 288 288 288 289 290 291 291 291 291 291 293 294 295 295 295 296 296 296 296 295 295 295 295 294 293 293 294 294 293 291 290 290 290 290 289 288 287 286 285 285 284
289 289 288 288 288 288 288 289 289 289 289 288 288 288 287 286 285 285 284 284 284 283 284 283 281 281 282 282 280 279 281 282 283 282 282 282 282 282 282 282 283 283 283 284 285 286 287 288 287 287 289 290 290 290 290 290 292 293 294 295 295 295 295 295 295 295 294 294 294 293 293 292 292 292 292 291 291 290 290 290 289 289 289 289 288 286 284
288 288 288 289 289 288 289 289 289 289 289 288 287 287 286 286 285 283 283 283 283 283 283 282 280 279 280 281 280 278 279 281 281 281 281 281 282 282 282 281 282 282 283 283 283 285 286 287 286 286 288 289 290 290 289 289 290 292 293 294 294 294 295 295 295 295 294 293 293 292 292 291 290 289 288 288 287 287 287 287 287 287 287 288 288 286 284
289 289 289 289 289 288 289 289 289 288 288 287 286 285 285 284 284 282 281 281 281 282 282 282 280 278 279 279 279 277 278 280 279 279 279 279 280 281 281 280 280 281 281 282 283 285 286 286 285 285 287 288 289 289 288 287 287 289 290 292 293 294 294 294 295 294 294 293 292 292 291 291 290 288 287 286 285 284 284 284 284 284 283 284 285 285 284
289 289 289 289 289 289 289 289 288 287 286 285 285 284 283 283 283 282 281 279 279 279 280 280 279 277 277 278 277 276 277 278 278 278 278 278 279 279 279 279 278 277 278 279 280 282 284 284 284 285 287 288 289 288 286 285 285 286 287 289 290 292 293 293 293 293 293 293 292 291 290 289 289 288 287 285 284 283 282 282 282 281 281 281 282 282 282
289 289 289 289 288 288 288 288 287 286 285 284 283 283 282 282 281 280 280 279 278 276 276 278 278 277 275 276 276 275 275 276 277 275 275 277 278 278 278 278 277 276 276 277 278 280 281 282 283 285 286 288 289 287 285 285 285 285 285 286 287 289 290 291 292 293 293 292 292 291 290 289 288 287 286 285 284 282 281 279 279 279 279 279 279 280 280
289 288 288 287 287 287 287 286 285 285 284 283 282 281 281 280 279 278 278 277 277 276 275 275 276 275 274 273 273 273 273 274 274 273 272 273 275 275 275 275 274 274 275 276 278 279 278 279 281 283 286 288 288 284 283 284 284 284 284 284 284 286 288 289 290 291 291 292 291 290 289 288 288 287 286 284 283 281 280 278 277 277 277 278 278 278 279
287 287 286 285 286 286 285 283 283 283 283 282 280 279 279 279 278 278 278 277 276 275 275 274 273 273 273 272 271 271 271 271 271 271 270 271 271 271 271 270 270 272 273 276 279 279 277 277 279 281 284 287 285 281 281 282 282 282 283 282 283 284 286 287 288 289 290 290 290 289 288 287 286 285 284 282 281 280 279 278 277 277 277 277 277 278 278
285 284 283 282 282 283 283 282 281 281 281 281 280 279 278 278 277 277 278 277 276 274 274 273 271 271 271 270 269 269 269 269 269 269 269 269 268 268 268 267 268 269 270 273 277 277 276 277 278 280 284 286 282 278 279 280 279 280 281 281 282 283 284 285 287 287 288 288 288 288 287 285 284 283 281 280 279 278 278 278 277 277 277 276 276 277 277
282 281 280 280 280 280 281 281 281 281 281 280 279 278 276 275 275 276 277 276 275 273 273 272 270 269 269 268 268 267 267 267 267 267 267 267 267 266 266 266 267 268 269 270 272 273 273 273 274 277 283 282 277 276 278 278 278 279 280 281 282 283 283 284 285 286 286 287 286 286 285 283 282 281 280 279 278 277 277 277 277 277 277 276 276 276 276
280 279 279 279 279 279 279 280 280 280 279 279 278 276 274 272 272 274 274 274 272 271 271 271 270 269 268 267 266 266 265 265 266 266 265 265 265 264 265 265 266 267 268 269 269 269 269 269 269 273 278 278 275 276 278 277 277 279 279 280 282 283 282 283 284 284 285 285 284 284 283 281 280 279 278 277 277 276 276 277 277 277 277 276 276 276 276
278 278 278 278 278 277 277 278 278 278 278 276 275 274 273 271 270 271 272 272 271 270 270 269 269 268 267 266 265 264 264 264 264 264 264 264 263 264 264 264 265 265 266 267 267 267 267 267 269 272 274 274 274 276 276 275 275 277 278 278 280 281 281 282 282 282 283 283 282 282 281 279 278 278 277 276 276 276 276 277 277 277 276 276 275 276 276
276 277 277 276 275 275 276 275 275 275 276 274 272 272 271 270 269 270 270 270 269 268 268 267 267 266 266 264 263 263 262 263 263 263 263 263 263 264 264 264 264 264 265 265 266 266 266 267 268 270 270 270 272 273 272 273 274 275 276 277 277 278 280 281 281 281 281 281 280 280 279 278 277 276 276 276 275 276 276 276 276 276 276 275 275 275 275
273 273 273 272 272 273 274 274 273 273 274 274 273 271 270 269 268 268 267 267 267 267 266 265 265 264 264 263 262 262 262 262 263 263 263 263 263 264 264 264 264 264 264 265 265 266 266 266 267 268 269 270 271 271 271 271 272 273 274 275 276 276 278 279 279 280 279 279 278 278 277 277 276 275 275 275 275 276 276 276 276 275 275 275 275 276 276
269 269 269 269 269 269 270 272 273 273 273 275 276 273 270 268 267 266 266 265 265 265 264 264 263 263 262 262 262 262 262 263 263 263 263 264 264 264 264 264 264 264 264 265 265 265 266 267 267 267 268 269 271 272 272 273 273 274 275 275 275 276 277 278 278 278 278 277 277 276 275 275 275 275 275 275 275 275 276 275 275 275 275 275 276 276 276
269 269 269 269 268 268 268 269 270 270 270 272 274 273 271 268 266 265 265 264 264 263 263 263 263 262 262 262 263 263 263 263 263 263 263 263 264 264 264 264 264 264 264 264 265 266 266 266 266 266 267 269 271 272 273 274 274 275 275 276 276 275 276 277 277 277 276 276 275 275 274 274 274 274 274 274 274 275 275 275 275 275 276 277 277 276 274
269 270 269 269 269 268 268 267 267 267 267 267 268 268 268 266 265 265 265 264 263 263 263 263 262 263 263 263 263 263 263 263 263 263 263 263 263 263 263 263 264 264 264 264 265 265 265 265 266 267 268 269 271 273 274 274 274 275 275 275 274 275 275 276 276 275 275 275 274 274 273 273 273 273 273 274 274 274 275 275 275 276 277 277 276 274 274
269 269 269 269 269 268 268 267 266 266 265 264 264 264 265 265 264 264 264 263 263 263 263 263 263 263 263 263 263 263 263 263 263 263 263 263 263 263 263 263 263 263 263 264 264 265 265 266 266 267 268 269 271 272 273 274 274 274 273 273 273 274 274 274 274 274 274 273 273 273 273 272 272 273 273 273 274 274 274 275 276 277 276 275 274 274 275
269 268 268 268 268 267 267 266 265 264 263 263 263 263 264 264 264 263 263 263 263 263 263 263 263 263 263 263 263 263 263 263 263 263 263 263 263 263 263 263 263 263 263 263 263 264 265 266 266 267 268 269 270 271 272 273 273 272 272 272 272 273 273 273 273 272 272 272 272 272 272 272 272 272 272 272 273 273 274 275 276 276 275 274 274 275 275
269 268 267 266 266 265 265 264 263 263 262 262 263 264 265 264 263 263 262 263 263 263 263 263 263 263 263 263 263 263 263 263 263 262 262 262 263 263 263 263 262 262 262 262 263 263 264 265 266 266 267 268 269 270 271 271 271 270 270 271 271 272 272 272 272 271 271 271 271 271 271 271 271 272 272 272 272 273 274 275 275 274 274 274 275 275 274
266 266 265 264 263 263 263 263 263 263 263 263 264 265 264 263 263 263 263 263 263 263 263 263 263 263 263 262 262 262 262 263 262 262 262 262 262 262 262 262 262 261 262 262 262 263 263 264 265 266 266 267 268 268 268 269 269 269 269 270 270 270 270 270 271 270 270 270 270 270 270 271 271 271 271 272 272 273 273 273 273 273 274 274 274 274 274
263 263 263 262 262 263 263 263 263 264 264 265 265 264 263 263 263 262 262 262 262 263 263 263 262 262 262 262 262 262 262 262 262 261 262 262 262 261 261 262 261 261 261 262 262 263 263 264 264 265 266 266 266 267 267 268 268 269 269 269 270 270 270 270 270 270 270 270 270 270 270 270 270 271 271 272 272 272 272 272 273 274 275 274 274 273 273
261 261 262 262 262 263 263 262 263 263 264 265 264 263 263 263 263 262 262 262 262 262 263 263 262 262 262 262 261 262 262 262 262 261 261 261 261 261 261 261 261 261 262 262 262 263 263 264 264 264 265 266 266 267 267 268 268 268 269 269 269 269 269 269 269 269 269 269 269 269 269 270 270 271 271 271 272 272 273 274 275 275 274 273 273 272 273
261 261 262 262 262 263 262 262 262 263 263 263 263 263 263 263 262 262 262 262 262 262 262 262 262 262 261 261 261 261 262 262 261 261 261 261 261 261 260 261 261 261 262 262 263 263 264 264 264 265 265 266 266 267 267 267 268 268 268 268 268 268 268 268 268 268 268 268 269 269 269 270 270 271 271 272 272 273 274 275 275 274 273 272 272 272 272
262 261 261 262 262 262 262 262 262 262 262 263 263 263 263 262 262 262 262 262 262 262 262 262 261 261 261 261 261 261 261 261 261 261 261 261 261 261 261 261 261 262 262 262 263 264 264 264 265 265 266 266 267 267 267 268 268 268 268 268 268 268 268 268 268 268 268 268 269 269 269 270 270 271 272 273 273 273 273 273 273 272 272 271 271 272 272
262 262 261 262 262 262 262 262 262 262 262 262 262 263 262 262 262 262 262 262 262 262 261 261 261 261 261 262 262 262 261 261 261 261 261 261 261 261 261 261 262 262 263 263 263 263 264 264 265 265 266 266 267 267 268 268 268 268 268 268 268 268 268 268 268 268 268 269 269 270 270 271 271 272 273 273 273 273 272 272 271 271 271 271 272 271 271
262 261 261 261 261 262 262 262 262 262 262 262 262 262 262 262 262 262 262 262 262 262 261 261 262 262 262 263 263 263 262 262 262 262 261 261 261 262 262 262 263 263 263 263 264 264 264 265 265 266 266 267 267 268 268 268 268 268 268 268 268 268 268 269 269 269 269 270 270 271 271 272 272 272 272 272 272 272 271 271 270 270 270 271 271 270 270
261 261 261 261 261 262 262 262 262 262 262 261 261 262 262 262 262 262 262 262 262 262 262 262 262 263 263 263 263 263 263 263 263 263 263 262 263 263 263 263 264 264 264 264 264 264 265 265 266 266 267 267 268 268 268 268 268 268 269 269 269 270 270 270 270 270 270 271 271 271 271 271 271 272 272 272 271 271 270 270 270 270 270 270 270 270 270
260 261 261 261 261 261 261 261 261 261 261 261 261 261 261 262 262 262 262 262 262 262 263 263 263 263 264 264 264 264 264 264 264 264 264 264 264 264 264 264 264 265 265 265 265 265 266 266 267 267 268 268 268 269 269 269 269 269 269 270 270 271 271 271 271 271 271 272 272 272 272 271 271 271 271 270 270 270 270 270 270 270 270 270 270 270 270
261 261 261 261 261 261 261 261 261 260 260 261 261 261 261 262 262 262 262 262 263 263 264 264 264 264 264 264 264 264 264 264 264 264 264 265 265 265 265 265 266 266 266 266 267 267 267 267 268 268 269 269 269 270 270 270 270 270 270 270 270 271 271 271 271 272 272 271 271 271 271 270 270 270 269 269 269 269 269 270 270 270 270 270 270 269 269
261 261 261 261 261 260 260 260 260 260 260 260 261 261 261 261 262 262 262 262 263 263 264 264 264 264 264 264 264 264 264 265 265 265 265 266 266 266 266 266 267 267 267 267 267 267 268 268 269 269 269 269 270 270 270 270 270 270 270 270 270 270 270 271 271 271 270 270 270 269 269 269 269 269 269 269 269 269 269 269 269 269 269 269 269 269 269
260 260 261 260 260 260 260 260 260 260 260 260 260 261 261 261 261 262 262 263 263 264 264 264 265 265 265 265 265 265 265 265 266 266 266 266 266 267 267 267 267 267 267 268 268 268 268 268 269 269 269 269 270 270 270 270 270 270 270 270 270 270 270 270 270 269 269 269 269 269 269 268 268 268 268 268 268 269 269 269 269 269 269 268 268 269 269
260 260 260 260 260 260 260 260 260 260 260 260 260 261 261 261 262 263 263 263 264 265 265 266 266 266 266 266 266 266 266 266 267 267 267 267 267 267 267 267 267 267 267 267 267 267 267 268 268 268 269 269 269 269 269 269 269 269 269 269 269 269 268 268 269 268 268 268 268 268 268 268 268 268 268 268 268 268 268 268 268 268 268 268 268 268 268
Wind_Speed
19 19 21 21 19 18 18 19 20 20 19 19 19 20 20 17 16 17 16 17 20 16 15 19 22 22 21 21 25 31 36 37 37 38 37 35 38 39 34 33 35 37 39 40 39 41 43 44 44 46 48 48 46 46 48 50 49 47 45 46 49 50 49 48 48 47 47 48 49 51 54 56 58 58 57 57 55 54 53 52 51 51 49 47 46 45 45
17 18 20 21 21 21 20 20 21 20 22 24 24 24 24 23 24 23 22 24 24 19 18 20 22 25 26 28 34 38 39 40 42 42 36 31 32 32 30 31 32 34 37 39 40 42 43 43 44 44 44 44 46 47 47 48 50 49 46 46 46 46 46 46 46 46 48 49 50 50 52 53 55 57 57 56 54 52 51 50 50 49 48 47 46 45 45
12 16 19 19 20 20 21 21 21 22 24 25 25 24 22 22 25 26 27 27 22 19 20 23 26 31 31 30 31 34 38 40 36 29 26 27 30 32 33 33 33 32 33 35 39 41 42 42 43 44 44 44 45 47 47 48 49 46 45 46 45 45 46 46 47 49 51 51 50 50 50 52 54 56 56 54 52 50 49 49 49 49 48 47 46 46 47
8 11 16 18 18 19 21 22 23 24 25 23 22 21 20 21 23 24 25 21 16 16 18 20 23 24 24 22 23 24 26 24 25 27 29 32 34 35 37 39 39 38 37 35 34 37 39 40 41 44 47 48 48 50 50 46 43 42 45 48 47 47 48 49 51 53 53 53 52 51 50 51 53 53 53 52 50 49 48 48 48 48 48 48 47 47 47
8 9 13 16 15 14 14 16 22 26 25 24 22 21 21 22 20 18 16 12 9 11 12 13 15 15 15 14 11 16 23 28 30 29 28 30 33 35 37 40 42 42 43 42 39 35 34 35 37 39 44 51 53 49 44 41 41 43 46 47 48 49 49 51 54 54 54 53 53 52 50 50 50 50 50 49 48 47 47 47 47 48 48 47 47 47 47
9 12 14 13 11 10 7 7 14 22 25 25 24 21 20 17 11 9 8 7 13 16 16 16 15 16 19 14 18 30 31 30 31 32 31 32 34 36 38 40 43 44 44 45 45 42 37 32 32 33 37 45 48 43 39 42 46 47 44 43 45 48 49 51 53 52 52 53 53 51 50 48 48 48 47 47 46 46 46 46 47 47 47 47 46 46 47
10 12 13 11 9 9 5 2 3 7 11 12 15 15 11 9 12 14 14 16 17 16 16 17 18 25 30 15 22 35 37 35 36 37 37 39 39 39 41 42 44 45 44 46 47 46 44 41 34 30 33 37 39 40 42 46 48 44 40 39 40 42 44 47 48 49 50 51 51 50 48 47 46 45 45 45 45 45 45 45 46 46 46 46 45 45 46
8 9 11 12 10 6 2 6 13 13 9 13 14 7 6 13 13 11 13 14 14 14 17 20 24 35 35 12 17 36 42 39 39 38 38 41 41 40 42 43 44 45 44 45 47 47 46 45 43 37 31 31 34 38 40 43 42 37 33 33 34 36 38 41 43 45 47 47 48 47 46 45 45 44 44 44 44 44 44 44 44 44 44 44 44 44 45
7 10 13 14 14 10 3 3 10 8 4 7 8 3 5 12 12 11 12 13 14 15 17 22 30 36 28 8 11 36 46 42 40 37 37 40 41 42 43 43 44 44 44 45 46 46 46 44 44 44 38 28 25 27 31 34 33 29 25 25 27 30 34 36 39 41 43 44 44 44 44 44 43 43 42 42 43 43 43 43 44 44 44 44 43 43 44
5 10 11 10 12 9 2 3 5 4 6 9 8 7 2 8 12 13 13 14 17 16 15 21 28 27 18 7 12 33 45 42 40 40 41 42 43 44 45 45 46 47 46 47 47 46 45 43 42 43 41 34 26 20 21 22 22 20 18 19 22 26 29 32 35 37 39 41 41 42 43 42 41 41 41 41 42 41 41 42 42 42 42 42 42 42 43
6 9 9 7 7 2 5 7 7 10 18 16 6 5 3 7 13 15 14 14 15 15 16 21 22 17 12 9 13 31 42 39 38 42 44 44 46 46 46 46 46 47 48 48 48 47 46 43 41 40 40 38 31 25 23 21 20 20 20 19 20 22 24 27 31 34 36 38 40 41 41 40 39 40 40 40 40 40 40 40 39 40 41 41 42 42 43
8 9 8 7 4 2 6 10 10 18 23 14 2 4 2 8 11 13 16 14 12 14 17 17 14 10 9 12 22 36 40 37 38 40 41 43 45 45 46 47 47 48 48 48 49 49 47 45 41 37 37 37 34 30 28 26 25 25 23 22 21 20 20 23 26 29 32 35 37 39 39 39 39 39 39 39 38 38 38 38 38 39 40 41 42 42 42
7 8 8 6 3 1 6 11 17 24 19 4 2 4 6 8 9 12 16 14 14 16 15 12 9 10 14 20 31 39 38 37 41 42 39 41 43 42 43 45 45 47 48 48 48 48 46 45 42 37 35 35 34 32 30 28 28 28 25 23 22 21 21 21 22 26 29 31 34 35 36 37 37 38 37 37 37 37 38 38 39 40 40 41 42 42 43
5 4 5 7 5 2 11 18 22 20 10 1 3 6 5 6 10 12 14 14 16 18 16 14 15 19 22 25 30 34 35 37 41 42 40 41 42 42 42 43 43 45 47 48 48 48 46 44 42 39 36 34 33 33 31 30 29 29 26 23 21 22 22 21 21 23 26 29 31 32 34 35 36 36 37 37 37 37 38 39 39 40 41 42 43 44 44
5 5 7 9 7 5 17 20 15 9 3 6 10 7 3 5 10 13 14 16 19 20 20 22 23 25 26 27 28 32 35 36 36 37 38 37 39 41 42 43 43 43 44 46 47 46 46 44 41 39 37 34 32 31 30 29 30 30 28 25 24 23 22 22 21 22 24 26 28 30 32 34 35 36 37 37 38 38 38 39 40 42 43 44 45 46 46
4 5 6 5 4 10 18 13 5 4 8 11 10 6 5 6 8 10 13 18 21 21 22 25 27 27 28 28 28 30 33 33 34 35 34 33 35 38 39 40 42 42 43 45 45 45 45 43 40 37 35 33 34 32 30 29 30 30 30 29 28 27 25 24 23 22 23 25 27 29 30 32 33 35 37 38 38 38 39 40 42 44 45 46 47 47 48
4 5 7 10 11 18 23 18 9 10 15 15 13 9 8 9 11 12 14 20 23 23 23 25 28 28 28 29 29 30 31 32 33 33 33 35 36 37 39 40 42 42 43 44 45 45 44 42 40 38 34 33 34 33 32 31 31 31 31 32 32 30 28 26 26 25 25 26 27 28 29 31 33 35 37 38 39 40 40 42 44 45 46 47 48 49 49
7 7 12 14 13 18 27 26 17 14 17 18 15 11 10 15 18 17 17 20 23 23 24 25 27 29 29 31 33 32 31 34 34 34 36 38 37 37 39 41 42 42 43 44 45 46 45 43 41 40 37 35 35 35 34 33 32 32 32 32 33 32 30 29 28 27 27 28 28 29 30 31 33 35 37 39 40 41 42 44 45 46 47 48 49 50 51
7 7 9 10 12 20 28 26 20 18 18 17 14 12 14 18 21 22 22 22 22 24 25 25 27 30 31 33 35 35 35 36 37 37 38 38 39 39 40 41 41 42 43 45 46 48 48 45 43 43 41 39 38 38 37 34 33 32 32 32 32 33 32 31 29 29 29 29 30 31 32 32 32 35 37 40 42 43 44 45 47 48 49 50 50 51 53
8 8 12 16 21 28 31 30 26 22 19 18 17 17 19 20 21 22 21 21 22 25 26 25 25 28 32 33 34 36 38 40 40 41 41 41 42 43 43 42 42 43 44 46 48 50 50 48 45 44 43 42 41 40 40 37 34 33 33 33 32 33 33 32 32 31 30 30 31 33 34 35 35 36 37 40 43 44 45 46 47 48 50 51 52 53 55
7 10 12 16 19 22 26 29 26 22 21 21 20 22 22 22 22 22 21 22 24 25 27 27 25 26 32 35 34 34 38 42 43 43 45 46 48 48 47 46 45 45 46 47 48 50 52 50 47 45 44 43 42 41 40 38 34 33 34 34 34 34 35 34 34 33 33 33 33 34 36 37 38 39 40 41 43 45 45 46 47 47 48 50 52 55 56
8 9 10 12 10 9 16 22 21 20 21 21 19 23 24 23 22 22 23 27 29 28 29 29 27 28 34 38 37 36 39 42 44 45 46 48 51 52 51 50 49 48 48 48 49 51 53 52 50 47 45 43 43 42 41 38 35 33 33 34 35 36 36 37 37 35 35 35 35 36 37 38 40 41 42 43 45 46 47 47 48 49 49 49 50 53 55
12 15 17 17 12 11 20 27 23 20 21 20 21 23 22 21 22 23 24 28 31 32 32 31 29 32 37 40 40 39 41 44 46 47 48 49 51 54 53 52 52 51 50 50 51 52 53 52 51 50 48 46 43 42 42 40 38 36 35 35 36 38 38 39 39 37 37 37 37 38 39 40 41 42 43 45 46 48 49 49 48 49 50 49 48 50 53
18 23 27 24 17 18 26 28 23 20 21 22 22 20 18 21 25 27 27 29 30 30 33 35 34 35 37 41 41 41 43 48 49 49 51 53 54 55 55 53 52 52 51 50 50 51 53 53 52 52 51 49 46 43 42 40 39 39 39 38 39 40 40 40 40 39 39 39 39 40 40 41 42 44 44 46 47 48 49 49 47 47 48 49 48 48 51
22 25 28 24 21 25 29 28 25 25 22 19 17 19 21 25 28 28 30 32 31 29 32 37 39 37 36 38 40 40 44 50 51 50 51 55 58 57 56 55 53 52 51 51 51 51 52 51 51 51 51 50 48 46 42 38 36 36 38 40 42 43 42 41 41 41 41 41 41 41 42 43 44 44 45 47 47 46 45 44 42 41 44 46 46 47 49
24 26 26 23 25 29 28 22 21 20 18 17 19 23 26 28 29 29 31 33 33 33 33 36 39 39 36 35 38 40 44 49 52 50 51 54 58 57 55 53 51 51 52 53 53 52 51 50 50 50 50 50 48 44 41 37 33 33 35 37 40 41 41 41 43 43 43 43 43 42 43 44 45 45 46 46 46 45 42 39 38 37 39 42 44 46 47
21 23 21 18 20 23 19 14 15 20 22 24 26 26 27 28 30 33 36 36 36 36 36 36 37 39 39 37 37 40 44 48 51 52 52 53 54 53 51 50 50 50 51 51 51 51 49 48 47 47 48 48 44 39 36 32 29 29 31 33 36 38 39 40 43 45 45 44 43 42 43 44 45 46 45 44 44 43 41 40 39 38 37 37 40 43 44
19 20 16 12 13 19 20 20 23 26 27 27 28 28 28 31 33 36 40 41 40 39 39 37 35 37 40 41 39 41 45 49 51 53 53 52 52 50 49 49 50 50 50 49 48 47 45 43 43 44 46 46 40 35 32 29 27 28 30 31 32 35 38 40 42 44 45 45 44 43 43 43 44 44 43 43 42 41 40 39 39 39 38 35 33 33 35
16 16 15 14 15 20 24 26 27 27 27 28 30 29 29 31 36 40 43 44 43 43 43 42 39 38 40 41 41 43 46 49 52 53 53 52 51 49 49 50 50 50 49 47 45 42 40 39 41 44 46 44 40 36 33 30 28 29 31 31 32 33 35 39 41 43 44 45 44 43 42 42 42 42 41 41 41 40 40 40 40 41 41 39 38 36 35
14 14 16 17 17 18 21 24 26 28 28 29 31 32 31 30 34 40 44 44 43 44 46 46 46 45 44 43 43 44 44 48 52 53 52 51 50 48 47 48 48 49 49 47 43 40 38 40 44 47 47 44 39 35 33 30 28 29 30 31 32 33 33 36 39 41 43 43 43 42 41 41 40 40 40 40 40 41 42 43 44 44 44 44 45 45 43
17 16 16 15 14 15 20 25 28 30 30 30 32 36 36 33 33 39 45 46 45 46 47 49 50 51 49 47 46 44 44 46 49 51 51 51 49 47 45 43 43 47 49 47 44 42 43 46 48 48 45 41 38 35 34 33 32 33 34 33 33 33 33 34 37 40 41 41 41 41 40 40 40 39 39 40 41 43 44 45 46 46 47 47 47 48 48
18 17 13 11 14 20 24 26 26 30 34 35 35 37 36 36 37 41 44 46 47 48 48 49 51 51 51 49 47 45 44 45 48 49 50 49 47 45 43 41 42 45 47 47 45 44 45 48 48 47 44 44 43 42 40 37 36 36 37 36 35 34 33 34 37 39 39 39 39 39 39 39 39 39 40 42 43 45 46 47 47 47 48 49 49 50 50
16 15 12 14 19 27 31 30 28 32 38 41 41 40 39 38 38 40 42 44 47 48 49 49 49 49 48 48 47 45 45 46 47 47 46 46 46 45 44 43 43 44 45 44 43 43 44 47 48 47 44 41 39 38 37 37 37 37 38 37 35 33 33 34 35 37 37 37 37 37 37 38 38 39 41 43 44 46 47 48 49 48 48 49 50 50 49
13 13 14 17 20 23 29 33 35 37 41 44 46 45 43 41 41 42 43 44 46 48 48 47 47 46 45 45 45 45 45 45 46 46 45 46 47 47 45 44 43 42 42 42 42 43 44 44 42 40 37 33 30 29 28 29 31 32 33 31 29 30 32 33 34 35 35 35 35 35 35 36 38 40 42 44 45 47 49 50 50 50 50 50 50 49 49
16 17 20 21 22 22 25 30 34 36 39 43 47 48 47 45 44 45 45 45 45 46 46 45 44 44 43 43 44 44 43 43 45 46 46 46 46 46 45 43 41 40 41 42 42 41 40 37 34 34 34 32 28 25 23 23 23 24 25 24 25 27 30 32 33 34 33 33 34 34 35 37 38 40 42 44 46 47 49 50 51 52 52 51 51 50 49
21 23 24 25 26 27 28 29 32 34 36 39 43 46 47 46 45 45 45 44 43 42 42 42 42 43 43 43 43 43 43 43 44 44 44 44 43 43 42 41 40 40 41 42 38 34 32 32 31 30 31 29 25 22 20 20 20 21 21 21 24 27 29 31 32 32 32 32 33 34 36 37 39 41 43 45 47 48 50 52 53 52 51 52 51 50 48
24 26 28 29 29 30 31 31 32 33 35 37 39 41 43 45 44 42 42 41 40 39 40 40 42 43 43 42 41 41 41 41 42 42 43 42 40 39 38 38 37 37 38 37 33 30 29 29 28 26 26 24 22 19 18 17 17 17 18 19 23 26 28 29 30 30 31 32 33 34 35 37 39 41 44 46 48 50 52 53 53 52 51 51 51 50 48
28 28 30 31 32 33 34 33 32 32 34 36 37 38 40 41 40 39 38 38 37 38 39 39 40 41 41 40 40 39 39 40 41 41 40 37 36 37 36 34 33 31 31 31 31 30 28 26 24 22 21 19 17 15 14 13 12 13 14 18 21 24 25 27 28 29 30 31 32 34 36 38 40 42 44 47 49 51 52 53 53 52 51 51 50 48 45
32 32 32 33 33 34 35 35 34 33 33 35 38 39 38 37 36 36 37 37 37 37 38 39 38 38 37 37 38 38 40 41 40 37 34 33 34 34 32 28 25 24 25 26 27 25 23 21 20 18 16 15 13 12 10 9 9 10 13 16 19 21 23 25 27 28 29 31 32 34 36 39 41 44 46 47 49 50 51 52 51 50 50 50 48 44 41
34 34 34 34 35 36 36 36 37 36 34 34 36 36 35 34 34 35 36 37 37 36 36 37 36 36 36 36 37 39 42 40 34 30 31 31 29 26 24 23 21 20 20 20 19 18 17 17 16 15 14 13 11 9 7 6 7 9 12 15 17 19 21 23 25 27 29 31 33 35 37 40 42 44 46 47 49 50 50 49 48 49 49 48 44 41 38
34 34 34 35 36 37 37 37 38 37 36 34 32 31 30 31 32 34 35 35 35 35 34 33 33 33 35 35 37 38 37 31 26 26 27 25 21 20 21 22 21 19 18 16 15 14 15 14 13 13 12 10 8 6 5 5 6 8 11 13 16 18 21 22 24 26 28 30 33 35 38 40 41 43 45 46 47 47 46 45 45 46 45 43 40 37 36
33 33 35 36 37 37 36 36 36 35 34 31 29 28 28 29 30 31 32 32 33 32 31 30 31 33 34 35 35 33 28 24 23 25 23 18 16 18 21 21 20 19 17 16 15 14 13 12 11 10 9 7 4 3 3 4 6 8 11 13 16 18 20 22 24 25 28 30 33 35 36 38 40 42 43 43 42 42 42 42 43 42 40 38 36 34 33
33 34 35 36 36 36 35 34 33 32 31 29 27 27 28 28 28 29 30 30 30 29 29 31 32 32 31 30 29 27 23 22 23 25 22 17 14 15 18 19 19 17 16 15 14 13 12 11 10 9 7 5 4 2 1 3 5 8 10 13 15 17 19 21 23 25 27 29 31 33 34 36 38 39 39 39 39 40 40 40 40 39 37 35 33 31 30
33 32 33 33 33 32 31 30 28 28 28 28 27 27 27 26 26 27 28 27 27 27 28 30 29 28 27 27 26 23 22 22 23 23 22 20 18 17 17 17 17 15 14 14 13 12 12 12 11 10 8 7 5 4 1 2 4 7 9 11 14 16 18 20 22 24 25 27 29 30 32 33 34 35 37 38 39 40 39 37 36 36 35 34 32 30 29
31 30 29 29 29 28 27 26 25 25 26 27 27 26 26 25 25 25 24 23 24 25 26 25 24 24 25 26 24 20 19 19 19 19 19 20 20 20 19 17 15 14 13 13 13 13 13 12 10 9 9 8 6 5 5 5 6 7 9 11 12 14 16 18 20 21 23 24 25 27 28 29 31 33 35 37 38 37 36 35 34 33 32 30 30 29 29
28 27 26 26 25 24 22 22 22 23 24 25 26 25 24 23 23 23 21 20 20 21 20 19 19 21 23 24 23 20 17 16 17 17 17 17 17 17 17 16 15 14 14 14 14 14 13 11 10 10 9 8 8 9 10 10 10 11 12 12 13 14 15 16 17 19 20 21 23 25 26 29 31 33 34 35 35 35 34 34 32 30 28 27 27 28 27
26 25 24 23 22 21 20 20 21 22 22 23 23 24 24 22 21 20 19 17 16 15 14 14 16 17 19 20 21 20 19 18 18 19 18 17 16 17 17 17 17 17 16 17 17 16 15 14 13 13 13 13 14 15 16 16 16 16 16 16 17 17 17 17 18 20 22 23 25 27 28 29 30 31 31 31 32 32 32 31 30 29 27 26 26 26 26
24 24 22 20 19 19 19 19 20 21 21 20 21 21 21 20 19 18 15 13 11 11 11 12 13 14 16 17 18 18 18 18 19 20 20 19 19 19 19 20 20 20 21 22 22 22 21 21 21 21 21 22 22 23 22 22 22 21 21 21 20 20 20 21 21 22 22 23 24 25 26 27 27 27 28 28 28 28 28 27 27 27 26 26 25 25 24
22 20 18 17 18 19 19 19 19 19 19 18 18 18 18 18 16 14 12 10 10 10 11 11 11 12 14 15 16 16 17 18 18 19 19 20 21 22 22 23 23 24 26 27 28 28 27 26 26 25 26 27 28 28 27 27 26 25 25 24 23 22 21 22 21 21 21 22 22 23 24 25 25 25 25 26 26 25 25 24 24 24 24 24 24 23 22
20 17 16 17 18 18 17 16 16 16 16 16 16 16 15 15 14 12 9 9 9 9 9 10 11 11 12 13 14 15 16 16 17 18 19 20 22 23 24 25 26 27 28 29 30 30 29 27 27 27 27 28 28 28 28 27 27 26 26 25 24 23 22 21 21 21 21 22 22 22 23 23 23 23 23 23 23 23 22 22 21 22 21 21 20 20 20
18 15 16 17 17 15 14 13 13 13 13 13 13 13 13 12 10 9 8 8 8 8 9 9 10 11 12 13 14 15 15 16 17 19 20 21 22 24 25 25 26 27 27 28 28 28 27 27 26 26 26 27 27 27 26 26 26 25 25 24 24 23 22 21 20 21 21 21 21 21 21 21 21 21 21 20 20 19 19 19 18 18 18 18 17 17 17
15 14 14 15 14 14 14 13 12 11 11 10 10 10 11 9 7 6 7 7 8 9 10 10 11 12 13 14 15 16 17 18 19 20 21 22 23 23 23 24 24 25 26 26 26 26 26 26 25 25 25 25 25 25 24 24 24 24 24 24 23 23 22 20 20 20 20 19 19 19 19 19 18 17 17 16 16 15 16 15 15 15 15 15 15 15 15
Wind_Direction
240 242 250 251 252 254 253 254 258 259 257 253 251 253 254 253 255 258 256 255 259 257 248 250 255 260 265 270 277 280 281 281 281 281 281 281 281 283 287 289 288 288 286 282 277 276 276 276 278 282 284 282 277 276 277 276 273 269 265 265 266 261 254 251 250 251 251 250 251 251 250 248 246 245 246 246 246 246 245 244 243 242 241 240 239 236 234
248 242 244 245 247 251 250 250 250 250 253 253 251 252 255 254 256 261 262 258 257 256 252 250 252 258 266 271 274 276 278 280 281 285 290 296 302 310 315 312 306 299 293 287 283 281 280 278 278 281 280 278 276 278 278 277 277 273 264 262 262 257 252 252 253 253 251 249 250 250 249 248 246 245 245 244 245 245 245 243 242 240 239 237 237 235 233
256 249 248 243 242 245 248 249 247 247 249 250 251 253 253 256 259 260 260 260 259 257 256 256 256 258 262 268 271 273 277 283 294 313 338 354 356 355 354 348 342 334 321 309 299 294 289 284 283 283 282 281 279 278 279 280 279 274 264 259 256 250 250 252 252 251 249 247 248 249 248 247 245 244 243 243 243 243 243 242 240 238 237 236 235 234 233
259 251 249 250 250 247 247 247 246 246 245 244 247 247 244 247 252 255 258 260 263 268 265 265 267 268 268 271 276 286 302 328 358 14 19 16 10 6 3 1 360 359 353 342 325 310 301 294 292 291 290 291 286 281 280 281 280 273 265 260 254 248 250 252 249 248 247 246 245 246 247 247 245 243 242 242 242 242 242 241 239 237 235 235 234 233 232
276 268 263 265 263 251 244 239 237 239 240 242 244 244 245 247 249 256 263 267 298 326 335 333 326 321 315 314 341 11 14 17 19 17 13 9 4 1 359 357 357 358 358 357 350 337 319 300 292 293 294 293 289 284 284 286 284 278 272 265 256 250 250 252 250 248 247 246 245 245 246 247 245 243 242 241 242 242 241 239 237 235 235 234 233 232 232
284 287 291 286 270 259 253 225 229 239 243 246 248 251 257 264 282 312 327 2 11 11 12 4 354 339 327 343 47 47 33 19 8 2 1 359 355 353 350 348 349 349 349 350 352 352 345 324 299 288 290 293 291 286 285 284 282 279 275 269 260 253 253 253 251 249 247 246 245 244 245 245 244 242 241 241 241 241 239 237 236 234 234 233 232 232 232
276 282 285 273 259 265 266 93 8 290 271 277 282 276 285 329 358 7 19 24 17 12 3 358 355 337 325 344 56 40 22 13 4 355 351 351 348 347 346 343 343 344 343 343 343 346 348 346 332 305 288 287 289 286 283 282 279 276 272 267 262 258 257 257 253 250 248 245 244 244 243 243 242 241 240 240 240 239 238 236 236 235 234 233 232 232 231
269 271 263 257 267 275 190 69 28 10 3 359 347 332 22 24 10 9 23 18 11 9 1 356 354 341 328 335 49 24 9 4 359 352 348 347 345 343 342 341 341 341 340 339 340 339 341 347 349 339 316 294 286 285 285 283 277 272 269 266 263 262 261 260 256 252 248 246 244 243 242 242 241 239 239 239 239 238 236 235 234 233 233 233 232 231 230
247 260 256 259 272 269 224 49 16 12 357 335 321 272 60 32 10 3 16 13 7 8 1 354 351 344 334 320 9 3 359 355 353 350 346 343 341 340 340 339 340 342 341 339 339 339 339 343 348 350 345 332 310 297 293 287 275 268 269 272 272 270 267 264 259 253 249 246 245 243 241 240 239 239 239 239 238 237 234 233 231 231 231 231 231 231 230
257 272 270 274 273 265 311 333 305 324 302 278 259 226 182 36 14 3 11 12 6 3 356 354 354 348 342 335 344 348 348 346 346 344 341 340 339 337 337 337 337 338 339 339 338 339 341 343 345 347 348 349 349 338 320 304 290 285 292 296 292 284 276 268 260 254 250 247 244 242 241 240 240 239 239 238 238 236 234 233 232 232 232 231 230 230 230
290 283 277 290 277 266 20 328 302 329 315 297 275 218 187 44 13 360 11 13 5 1 352 352 357 353 343 335 330 336 338 338 338 337 335 335 334 333 333 333 333 333 334 335 335 336 339 341 344 345 343 342 346 348 340 330 323 321 321 316 307 297 285 273 263 256 252 248 245 243 241 240 240 240 239 238 237 235 233 232 233 233 232 231 230 229 228
290 286 276 286 279 69 4 329 337 338 318 304 290 240 266 34 13 359 8 4 356 360 353 350 358 354 336 318 316 325 328 326 328 330 329 329 329 328 328 328 329 330 331 331 332 332 335 337 339 342 340 336 336 338 338 337 336 333 329 320 313 305 293 280 269 261 256 252 248 245 243 242 241 240 239 238 237 235 233 232 232 233 232 230 229 227 226
285 284 281 286 261 95 10 344 348 345 333 336 108 284 317 7 358 353 2 353 345 348 343 341 338 318 310 308 310 317 321 321 324 325 324 325 324 324 324 325 326 327 327 328 328 327 329 331 333 337 337 334 333 332 332 335 335 331 327 323 320 314 303 289 275 265 259 255 251 249 247 245 243 241 241 240 238 236 234 232 231 230 229 228 227 226 224
298 285 289 289 262 39 15 352 347 356 4 19 309 312 322 333 328 340 349 340 336 333 325 321 315 307 309 310 310 315 318 319 321 322 323 324 323 323 323 323 324 326 325 324 324 323 324 326 328 331 331 329 330 330 330 333 331 324 320 318 318 317 312 302 288 273 263 257 253 251 248 246 244 242 241 240 238 236 234 233 231 229 227 225 224 223 221
288 272 276 276 260 343 359 348 348 18 47 272 296 311 282 281 309 329 334 329 329 325 318 315 313 310 313 313 313 315 316 316 318 319 321 322 321 322 323 323 325 326 324 321 320 319 319 321 324 327 327 324 323 325 327 329 326 322 320 317 313 312 311 308 301 288 276 267 260 255 251 248 245 243 241 239 237 234 232 231 229 227 225 224 222 221 219
282 260 262 273 285 325 335 335 325 321 298 275 271 269 249 263 298 317 319 319 320 318 314 313 313 312 312 312 313 314 314 316 318 317 318 319 319 320 321 321 323 324 322 320 318 315 314 316 319 322 323 321 318 317 320 323 321 320 321 318 314 310 305 302 299 293 286 278 270 263 258 253 248 244 242 239 236 234 231 229 228 226 225 223 221 219 217
259 233 259 289 305 306 307 307 294 291 290 274 255 250 262 282 299 307 308 311 315 316 315 311 310 309 309 310 313 314 314 315 315 314 315 316 317 318 318 318 320 321 319 318 316 313 311 312 313 314 316 316 313 311 314 316 313 313 314 313 313 311 305 299 293 287 283 278 273 269 264 259 254 250 245 241 237 234 231 228 227 226 224 223 221 219 216
258 253 257 272 289 289 290 295 295 285 279 268 254 254 277 296 305 307 305 305 308 311 311 309 305 305 307 310 312 313 313 312 312 312 312 313 315 315 315 316 317 316 315 314 313 311 309 308 308 308 307 307 306 305 309 310 308 306 305 306 307 307 304 300 293 285 280 275 270 266 262 259 257 254 250 246 241 236 232 229 227 226 225 223 220 218 216
260 266 255 259 276 280 282 288 290 280 267 253 243 259 285 297 301 302 302 303 304 306 306 304 301 301 305 308 311 312 313 311 310 311 311 312 313 312 312 313 314 313 312 310 309 308 307 306 306 304 302 300 299 300 302 303 302 299 297 297 298 299 298 297 292 285 281 276 271 266 260 256 255 253 250 246 242 238 235 231 228 226 224 223 221 218 216
235 252 267 271 272 274 277 280 279 270 253 240 246 269 286 292 293 292 293 296 299 302 303 300 298 299 303 305 307 310 312 311 310 311 310 310 311 311 312 313 313 312 311 309 307 306 305 304 305 303 299 296 295 296 296 296 295 294 291 289 290 290 290 290 287 283 278 274 271 267 261 257 255 253 250 246 242 241 241 238 234 230 227 225 223 220 218
255 261 269 271 272 274 274 271 268 263 253 248 258 276 287 291 291 291 293 296 297 299 300 299 296 296 301 305 306 307 309 310 309 310 311 311 312 312 312 312 312 312 310 308 306 305 302 302 303 301 297 293 291 290 291 291 290 289 287 286 283 281 281 281 281 279 275 270 267 264 260 256 254 252 249 247 245 244 244 243 241 239 236 232 228 224 220
266 261 252 252 261 276 273 268 269 268 262 261 271 285 292 293 292 294 298 300 302 303 303 303 300 298 302 307 308 306 306 307 307 308 310 311 312 313 312 311 311 311 309 307 306 304 302 302 301 298 295 292 288 285 284 286 286 285 285 284 281 277 274 273 273 273 271 268 264 261 258 255 251 248 245 243 241 241 240 238 238 238 238 237 233 227 222
254 260 261 255 243 255 273 278 278 272 268 276 288 292 292 292 293 296 299 300 303 306 307 306 304 301 305 309 309 307 306 306 307 308 308 308 309 310 310 309 308 308 307 306 305 303 302 301 300 298 295 292 288 283 280 279 280 280 279 278 276 273 270 269 269 269 268 266 264 260 257 254 250 246 243 240 238 237 236 235 234 232 231 232 232 229 225
259 267 273 270 258 260 272 276 276 276 281 290 292 288 285 289 294 297 299 299 301 303 305 308 308 305 306 310 310 307 306 307 307 307 307 307 307 308 307 306 304 304 304 303 302 302 302 301 299 297 294 292 290 286 281 277 276 275 273 271 269 269 269 268 267 267 266 264 262 258 255 251 248 244 241 238 236 234 233 233 232 230 228 227 226 225 222
259 267 274 276 270 269 273 275 279 286 290 288 283 282 288 294 298 299 300 303 303 300 300 305 309 309 307 307 307 305 304 305 306 305 304 305 306 306 305 305 304 303 302 302 302 302 301 300 298 295 292 291 290 289 285 279 274 270 269 268 265 264 266 266 264 263 262 260 259 256 254 250 247 244 240 238 234 231 229 228 228 228 227 225 222 220 218
262 268 274 277 274 275 278 280 283 286 284 280 284 291 297 301 304 304 304 305 305 303 302 305 308 310 306 303 302 301 300 302 303 302 300 300 302 302 302 303 303 302 302 303 302 301 300 298 295 292 290 289 289 290 288 283 275 269 267 267 266 263 263 263 263 261 259 257 256 255 253 250 247 244 241 237 233 228 222 217 215 217 219 220 219 217 215
267 271 275 278 279 279 280 278 280 284 288 291 298 303 306 308 308 308 309 309 308 308 309 308 308 308 306 302 300 299 299 300 300 299 298 297 298 299 300 300 300 300 302 302 300 298 298 296 294 291 289 287 289 290 288 284 279 273 269 268 267 264 261 261 260 259 257 255 254 252 250 246 243 240 237 232 228 222 217 211 206 203 204 206 210 213 213
271 273 272 269 273 280 283 283 286 291 295 300 306 309 309 309 310 311 312 313 313 312 311 309 307 306 305 304 302 300 300 300 299 298 298 297 297 298 299 299 299 300 302 300 296 295 295 294 292 289 285 285 289 292 289 285 282 278 275 272 269 264 260 258 257 256 255 253 251 249 247 243 240 236 232 227 223 217 211 206 201 196 191 190 193 200 203
269 272 274 272 276 284 287 288 292 296 299 304 308 309 310 311 312 313 314 314 314 313 311 311 309 306 304 304 303 302 301 301 300 299 298 298 298 299 300 301 302 302 301 297 296 297 297 295 293 288 284 286 292 294 290 285 279 274 273 272 271 267 262 258 256 254 253 251 249 247 245 241 236 231 226 222 218 211 203 199 194 189 184 180 177 176 179
275 281 288 290 290 290 289 291 296 300 304 308 311 312 311 311 310 311 313 314 313 313 313 313 311 309 307 307 305 304 302 300 299 299 298 298 299 299 300 302 304 302 300 299 299 300 298 295 293 289 287 290 294 293 290 286 281 277 275 274 271 269 266 262 258 254 251 248 246 243 240 236 231 226 220 214 209 203 198 194 190 185 181 178 175 171 169
292 296 300 297 291 289 294 299 303 307 309 312 312 312 313 313 310 310 312 314 313 313 312 312 311 311 310 309 307 306 304 301 300 300 299 299 300 300 302 302 301 299 299 299 298 296 295 294 293 291 292 295 295 291 288 284 278 274 273 272 271 271 268 263 257 253 249 245 242 238 234 229 225 219 213 206 201 197 194 190 186 183 179 176 173 170 167
304 308 310 302 297 301 305 308 309 311 314 314 313 312 314 313 311 310 311 312 312 312 311 311 311 310 311 311 309 308 305 303 302 301 301 301 302 303 304 302 298 295 295 295 294 294 295 295 294 293 294 295 292 288 285 281 275 270 268 267 268 269 267 260 254 251 248 244 240 235 229 224 218 212 206 201 196 193 190 186 183 181 178 174 171 169 169
319 318 316 312 311 313 315 315 313 313 315 316 314 313 312 311 309 308 308 309 310 311 310 310 310 310 311 311 311 309 308 306 304 302 302 303 304 305 304 302 299 296 295 294 293 293 292 291 292 293 294 292 289 285 280 274 270 267 265 264 264 265 264 259 253 248 245 241 236 231 226 220 214 207 202 197 193 190 187 184 180 178 175 172 171 171 176
326 315 309 311 312 311 311 313 314 315 316 317 316 314 312 311 309 309 309 309 310 310 310 310 311 312 313 312 311 310 309 307 304 303 304 305 305 306 305 304 301 299 296 294 293 293 293 293 295 296 297 293 288 284 279 272 266 263 261 261 260 259 259 257 250 244 241 236 231 226 220 215 209 204 198 193 190 187 183 180 177 175 173 173 175 176 181
323 316 314 314 313 309 307 306 309 311 312 312 312 313 313 312 310 311 311 311 310 310 311 313 313 314 314 313 311 310 308 306 304 304 305 306 306 307 307 305 303 299 296 294 295 297 298 297 296 296 296 293 288 282 277 270 264 258 255 255 254 254 255 253 247 242 238 233 226 219 213 207 202 198 194 189 187 184 180 177 176 176 177 178 178 178 180
326 322 320 318 317 316 312 308 308 308 306 304 306 308 310 311 311 312 312 312 311 313 315 316 316 315 314 313 312 310 308 307 306 305 306 307 308 309 308 305 302 298 296 298 302 303 300 297 296 297 297 294 288 281 276 270 263 255 251 251 251 250 248 244 240 235 231 225 219 212 207 202 198 194 191 188 185 183 180 178 178 180 182 181 179 177 179
328 325 322 321 320 318 314 312 311 309 306 303 304 305 307 310 312 313 313 313 315 317 318 318 318 316 315 314 313 311 309 309 308 308 309 309 310 310 308 304 302 301 300 302 305 306 302 301 303 303 299 294 289 285 280 274 266 259 254 250 248 244 240 234 229 224 219 214 210 204 199 196 192 190 188 186 184 182 181 180 181 182 182 179 177 179 180
328 326 324 322 321 318 315 314 313 310 307 307 306 307 310 312 314 315 315 316 318 321 322 321 320 318 315 315 313 312 311 312 312 312 312 312 311 310 308 306 305 306 304 303 304 306 306 308 309 308 305 301 298 291 282 274 268 262 254 247 241 235 229 223 217 212 207 203 200 196 193 190 187 185 184 183 183 182 182 183 184 184 181 178 180 182 180
328 327 325 322 320 318 317 316 315 312 310 310 311 313 316 317 318 318 318 320 324 326 325 322 320 317 315 315 314 313 314 317 318 318 318 316 313 311 309 310 311 309 305 303 305 307 309 311 312 312 311 311 309 305 297 285 273 259 245 237 229 222 217 212 206 201 198 194 191 189 188 186 185 184 182 182 182 183 183 185 185 183 180 181 183 182 177
327 326 324 322 320 319 318 317 316 315 314 314 315 317 320 321 322 322 322 324 327 328 325 323 321 319 318 318 316 315 317 321 324 325 324 320 317 316 316 320 323 320 315 314 315 314 315 318 319 321 324 326 323 317 302 279 258 241 229 222 215 208 204 200 196 193 190 187 185 183 182 182 182 182 182 182 183 183 184 184 183 180 180 182 182 179 176
324 323 322 320 320 319 319 318 317 316 318 318 318 320 323 325 324 323 323 324 326 326 327 327 325 323 321 320 318 318 322 327 331 333 331 328 327 329 331 333 336 337 336 336 334 330 329 332 333 335 337 336 326 308 282 254 234 219 210 205 201 197 193 190 188 186 184 182 181 181 181 180 181 182 182 183 183 183 183 181 180 180 181 181 179 176 174
323 322 321 320 320 320 319 319 318 317 318 320 321 324 326 327 325 324 323 324 326 328 331 331 328 324 324 323 323 326 332 337 339 342 344 343 339 337 339 342 347 352 354 354 352 350 349 350 351 351 347 338 324 302 270 232 213 203 195 188 186 184 183 181 180 180 179 179 179 179 180 181 182 182 182 182 182 182 181 181 180 180 179 177 174 172 170
323 322 321 321 321 320 320 320 319 319 319 321 324 326 327 326 326 325 325 327 330 332 332 330 328 328 330 333 335 338 341 342 343 346 351 356 354 349 348 352 357 2 6 6 7 11 14 14 14 12 4 355 351 341 272 208 189 182 179 176 176 176 176 175 175 175 175 176 177 177 179 181 181 181 180 179 179 179 180 180 178 176 173 172 170 169 168
324 322 322 321 321 320 320 320 320 320 321 323 325 327 327 327 327 328 328 330 332 331 330 329 331 334 340 345 348 348 345 343 344 348 354 5 16 18 13 9 9 12 16 19 25 32 34 32 29 27 24 23 25 27 45 137 153 160 164 165 166 168 169 169 170 171 173 174 175 176 178 179 179 179 178 176 175 174 174 174 174 172 170 169 168 167 168
323 323 322 321 320 320 322 322 321 321 323 324 325 326 328 329 329 329 330 331 329 327 328 331 335 341 347 352 356 355 350 348 353 0 5 12 20 24 23 21 22 25 31 38 44 46 44 41 38 38 41 45 49 57 77 99 117 132 141 147 153 159 162 163 165 167 169 171 172 173 174 175 175 175 174 172 170 169 169 169 170 170 168 167 167 167 169
324 323 322 321 321 322 323 322 321 322 324 325 325 326 328 330 330 330 331 329 326 327 332 337 342 347 352 356 1 5 8 12 19 24 26 26 26 28 30 33 35 39 44 49 50 49 48 47 48 50 53 60 72 84 95 102 107 113 120 126 133 140 145 149 153 157 160 162 163 163 164 165 166 166 167 167 166 167 167 166 166 166 166 167 167 168 170
325 325 325 325 325 325 324 324 324 327 328 327 325 324 327 330 331 331 329 329 329 333 341 348 352 356 0 3 7 14 24 34 39 41 42 42 41 42 44 46 48 50 52 54 55 55 56 57 60 63 66 72 79 86 91 94 97 101 105 108 113 119 125 131 136 142 147 150 152 153 155 157 159 161 163 164 164 165 165 164 163 163 165 168 169 171 173
328 328 329 330 330 329 330 330 330 329 328 326 324 324 327 330 331 331 333 338 345 354 359 2 3 6 11 17 23 29 36 43 47 48 48 49 51 54 57 57 58 59 60 61 62 63 63 64 68 71 74 76 79 81 82 84 87 91 95 100 104 110 114 119 125 132 137 141 144 147 151 153 156 158 160 162 163 164 164 164 164 164 166 169 172 174 176
332 332 335 338 338 338 338 337 333 330 328 327 326 326 328 331 333 337 347 0 10 13 14 15 16 18 25 32 38 45 49 52 53 51 51 54 59 63 65 66 66 67 68 69 70 71 71 72 74 75 77 79 81 82 83 85 87 89 93 96 100 104 109 113 119 124 130 134 139 143 147 150 153 156 159 161 163 163 163 163 165 166 168 171 174 176 178
340 344 348 349 347 347 345 340 334 331 331 330 329 329 332 336 341 347 1 15 21 22 23 24 26 31 38 44 49 55 60 61 62 62 64 67 71 72 73 74 74 75 75 76 77 78 78 79 79 79 80 81 82 84 86 88 90 92 95 98 101 105 109 114 119 124 129 133 138 142 145 148 152 156 158 160 161 161 161 164 166 168 170 173 176 179 183
352 357 358 354 352 353 354 348 341 338 337 334 331 334 340 345 349 357 11 24 30 31 34 36 39 44 49 54 59 65 68 69 70 73 75 76 77 78 78 78 78 78 78 79 79 79 79 79 79 80 81 83 84 86 89 91 93 96 98 101 103 106 110 115 120 124 128 132 136 139 143 146 150 153 155 157 158 159 161 163 166 169 172 176 180 184 189
10 11 6 359 0 7 10 5 359 354 349 343 342 347 354 359 7 22 35 43 43 40 39 42 46 51 55 59 64 68 70 70 72 74 75 76 77 77 77 76 76 76 76 77 77 78 78 78 78 79 81 83 85 88 91 94 97 99 101 103 106 108 111 115 120 123 127 131 136 138 140 143 147 150 151 153 155 158 161 165 170 174 178 182 187 191 196